{"data":{"norad_id":64577,"epoch":"2026-09-21T20:33:33.542208Z","epoch_age_seconds":60330,"freshness":"FRESH","line1":"1 64577U 25135BB  26264.85663822  .00000829  00000+0  13102-3 0  9993","line2":"2 64577  97.7767   6.0005 0021346  33.9334 326.3236 14.74706609 67514","mean_motion":14.74706609,"eccentricity":0.0021346,"inclination_deg":97.7767,"raan_deg":6.0005,"arg_perigee_deg":33.9334,"mean_anomaly_deg":326.3236,"bstar":0.00013102,"rev_number":6751,"period_min":97.646541434873,"perigee_km":631.08885742621,"apogee_km":661.07665641245,"semimajor_km":7024.2197569193,"source":"CELESTRAK","updated_at":"2026-09-22T09:00:29.852646Z"}}